Погода в Васильевском

Россия / Вологодская область     60°55′45″N   46°27′51″E
темп.,
°C
ветер,
м/с
пор.,
м/с
влажн.,
%
обл.,
%
осадки,
мм/ч
давл.,
гПа
погр.,
м
20 июня, вс
вс2000:00+13с24592 0.0 101977
03:00+10вюв11725 0.0 102110
06:00+16вюв125548 0.0 1021230
09:00+21ю1241100 0.0 1021797
12:00+22ююв234177 0.0 10211069
15:00+25юв234242 0.0 10191140
18:00+21юв485899 0.0 1018337
21:00+18юв31066100 0.0 1018308
21 июня, пн
пн2100:00+16ююв39765 0.0 1017251
03:00+13ю269229 0.0 1017108
06:00+20зюз1473100 0.0 1016149
09:00+28з354121 0.0 10161090
12:00+31зсз57307 0.0 10162711
15:00+31сз4628100 0.0 10162734
18:00+29ссз244424 0.0 1016178
21:00+22з226398 0.0 101613
22 июня, вт
вт2200:00+19з11631 0.0 101711
03:00+18з22670 0.0 101820
06:00+23зюз24580 0.0 1018163
09:00+30з24370 0.0 1018896
12:00+33зсз46280 0.0 10172969
15:00+33зсз352692 0.0 10162811
18:00+29зсз234660 0.0 1016192
21:00+23з256386 0.0 101774
23 июня, ср
ср2300:00+19зюз2285100 0.3 101824
03:00+18зсз11885 0.3 101812
06:00+23з23725 0.0 1019208
09:00+28з234646 0.0 1019773
12:00+32з23355 0.0 10182010
15:00+32зюз2340100 0.0 10181340
18:00+30юз38470 0.0 1016414
21:00+26юз395782 0.0 1016187
24 июня, чт
чт2400:00+22з311740 0.1 1016196
03:00+20зюз26755 0.1 1016133
06:00+23зюз3767100 0.0 1016308
09:00+26з3760100 0.4 1016621
12:00+32з573783 0.0 10152238
15:00+33з483396 0.0 10142983
18:00+31сз49436 0.0 10131549
21:00+24ссв24705 0.0 101367